Regional Weather Roundup
Issued by NWS

Home | Current Version | Previous Version | Text Only | Print | Product List | Glossary Off
Versions: 1 2 3 4 5 6 7 8 9 10 11 12 13 14 15 16 17 18 19 20 21 22 23 24 25 26 27 28 29 30 31 32 33 34 35 36 37 38 39 40 41 42 43 44 45 46 47 48 49 50

462
ASUS43 KLSX 200157
RWRMO

WEATHER SUMMARY FOR MISSOURI
NATIONAL WEATHER SERVICE SPRINGFIELD MO
800 PM CST THU JAN 19 2017

NOTE: "FAIR" INDICATES FEW OR NO CLOUDS BELOW 12,000 FEET WITH NO
       SIGNIFICANT WEATHER AND/OR OBSTRUCTIONS TO VISIBILITY.
       CURRENT SKY AND/OR WEATHER CONDITIONS ARE NOT AVAILABLE FOR
       CHILLICOTHE AND FARMINGTON.

MOZ001>031-035>038-043-044-053-054-200300-
...NORTHERN AND WESTERN MISSOURI...

CITY           SKY/WX    TMP DP  RH WIND       PRES   REMARKS
KANSAS CTY INT CLOUDY    47  43  86 CALM      29.64R
KANSAS C DTWN  CLOUDY    48  46  93 CALM      29.64S
LEE`S SUMMIT   CLOUDY    47  46  97 E5        29.64S
ST JOSEPH      CLOUDY    45  45 100 CALM      29.66R FOG
CHILLICOTHE      N/A     45  45 100 E3        29.67S

$$
MOZ066>068-077>081-088>096-101>105-200300-
...SOUTHWEST MISSOURI...

CITY           SKY/WX    TMP DP  RH WIND       PRES   REMARKS
SPRINGFIELD    CLOUDY    51  49  92 SE9       29.60F
JOPLIN         CLOUDY    50  48  93 SW8       29.63R
BRANSON        PTCLDY    46  46 100 SE7       29.63F

$$
MOZ032>034-039>042-045>050-055>058-069>072-200300-
...CENTRAL MISSOURI...

CITY           SKY/WX    TMP DP  RH WIND       PRES   REMARKS
COLUMBIA       NOT AVBL
JEFFERSON CITY CLOUDY    48  47  96 E3        29.65F FOG
ROLLA          FOG       48  48 100 E7        29.64S VSB 1/4
SEDALIA        FOG       48  48 100 E3        29.65F VSB 1/2
WHITEMAN AFB   CLOUDY    48  48 100 E3        29.63S FOG
WARRENSBURG    CLOUDY    46  46 100 CALM      29.64F
OSAGE BEACH    LGT RAIN  48  48 100 CALM      29.65F VSB 1

$$
MOZ051-052-059>065-200300-
...EAST CENTRAL MISSOURI...

CITY           SKY/WX    TMP DP  RH WIND       PRES   REMARKS
ST LOUIS INTL  FOG       47  46  97 E7        29.66F VSB 1/4
SPIRIT OF STL  FOG       46  46 100 E5        29.66F VSB 1/4

$$
MOZ072>076-082>087-097>100-106>115-200300-
...SOUTH CENTRAL AND SOUTHEAST MISSOURI...

CITY           SKY/WX    TMP DP  RH WIND       PRES   REMARKS
CAPE GIRARDEAU FOG       54  52  93 SW5       29.66F VSB 1/2
POPLAR BLUFF   CLOUDY    50  50 100 W3        29.67S FOG
WEST PLAINS    FOG       49  48  97 S6        29.67F VSB 1/4

$$



USA.gov is the U.S. government's official web portal to all federal, state and local government web resources and services.